This demonstration page uses our WeatherBlox Daily Observations layout. Learn more.

Left ArrowRight Arrow

38.89511, -77.03637

Hourly Observations for January 4, 2019

Temp ( °F °C ) Dew Point ( °F °C ) Humidity (%) Winds ( mph kmh ) Pressure ( in mb ) Visibility ( mi km ) Precip ( " mm )
12:52 am 00:52 Mostly Cloudy 39 3.9 32 0 76 76 SW 3 6 30.08 1019 10 16 0.00 0.00
1:52 am 01:52 Cloudy 38 3.3 31 -0.6 76 76 WSW 3 6 30.08 1019 10 16 0.00 0.00
2:52 am 02:52 Cloudy 37 2.8 31 -0.6 79 79 SW 6 9 30.07 1018 10 16 0.00 0.00
3:52 am 03:52 Cloudy 37 2.8 30 -1.1 76 76 SW 5 7 30.06 1018 10 16 0.00 0.00
4:52 am 04:52 Cloudy 39 3.9 32 0 76 76 SSW 3 6 30.06 1018 10 16 0.00 0.00
5:52 am 05:52 Cloudy 38 3.3 32 0 79 79 SSW 3 6 30.06 1018 10 16 0.00 0.00
6:52 am 06:52 Cloudy 39 3.9 33 0.6 79 79 Calm 30.05 1018 10 16 0.00 0.00
7:52 am 07:52 Cloudy 38 3.3 33 0.6 83 83 SSW 3 6 30.06 1018 10 16 0.00 0.00
8:52 am 08:52 Cloudy 40 4.4 34 1.1 79 79 SSW 3 6 30.07 1018 10 16 0.00 0.00
9:52 am 09:52 Cloudy 42 5.6 37 2.8 82 82 S 3 6 30.07 1018 10 16 0.00 0.00
10:52 am 10:52 Cloudy 43 6.1 37 2.8 80 80 S 5 7 30.03 1017 10 16 0.00 0.00
11:52 am 11:52 Cloudy 45 7.2 38 3.3 77 77 S 7 11 30.00 1016 10 16 0.00 0.00
12:42 pm 12:42 Cloudy 46 7.8 39 3.9 77 77 S 7 11 29.97 1015 10 16 0.00 0.00
12:52 pm 12:52 Cloudy 46 7.8 39 3.9 77 77 S 6 9 29.97 1015 10 16 0.00 0.00
1:45 pm 13:45 Cloudy 48 8.9 38 3.3 68 68 S 5 7 29.94 1014 10 16 0.00 0.00
1:52 pm 13:52 Cloudy 48 8.9 38 3.3 68 68 S 5 7 29.94 1014 10 16 0.00 0.00
2:52 pm 14:52 Cloudy 48 8.9 40 4.4 74 74 S 7 11 29.91 1013 10 16 0.00 0.00
3:05 pm 15:05 Cloudy 49 9.4 40 4.4 71 71 S 8 13 29.91 1013 10 16 0.00 0.00
3:52 pm 15:52 Cloudy 49 9.4 41 5 74 74 S 7 11 29.91 1013 10 16 0.00 0.00
4:02 pm 16:02 Cloudy 49 9.4 41 5 74 74 S 6 9 29.91 1013 10 16 0.00 0.00
4:52 pm 16:52 Cloudy 49 9.4 41 5 74 74 S 3 6 29.89 1012 10 16 0.00 0.00
5:28 pm 17:28 Cloudy 49 9.4 41 5 74 74 SSE 6 9 29.88 1012 10 16 0.00 0.00
5:47 pm 17:47 Cloudy 48 9 43 6 82 82 S 8 13 29.88 1012 10 16 0.00 0.00
5:52 pm 17:52 Cloudy 49 9.4 42 5.6 77 77 S 6 9 29.87 1012 10 16 0.00 0.00
6:24 pm 18:24 Cloudy 49 9.4 42 5.6 77 77 ESE 8 13 29.83 1010 10 16 0.00 0.00
6:52 pm 18:52 Cloudy 49 9.4 42 5.6 77 77 SE 8 13 29.82 1010 10 16 0.00 0.00
7:52 pm 19:52 Cloudy with Light Rain 48 8.9 42 5.6 80 80 SE 7 11 29.80 1009 7 11 0.00 0.03
8:52 pm 20:52 Cloudy with Light Rain 47 8.3 44 6.7 90 90 ENE 3 6 29.78 1008 4 6 0.02 0.51
9:52 pm 21:52 Cloudy with Drizzle 47 8.3 44 6.7 90 90 NE 7 11 29.73 1007 6 10 0.01 0.25
10:14 pm 22:14 Cloudy with Drizzle 47 8.3 44 6.7 90 90 NE 7 11 29.71 1006 8 13 0.01 0.25
10:22 pm 22:22 Cloudy with Drizzle 46 7.8 43 6.1 89 89 NE 8 13 29.71 1006 7 11 0.01 0.25
10:24 pm 22:24 Cloudy 46 7.8 43 6.1 89 89 NE 7 11 29.71 1006 7 11 0.01 0.25
10:34 pm 22:34 Cloudy 47 8.3 43 6.1 86 86 NE 7 11 29.71 1006 9 14 0.01 0.25
10:38 pm 22:38 Cloudy 46 7.8 43 6.1 89 89 NE 8 13 29.71 1006 8 13 0.01 0.25
10:49 pm 22:49 Cloudy with Drizzle 46 8 43 6 87 87 NE 9 15 29.71 1006 4 6 0.01 0.25
10:52 pm 22:52 Cloudy with Drizzle 46 7.8 43 6.1 89 89 NE 9 15 29.70 1006 4 6 0.01 0.25
11:52 pm 23:52 Cloudy with Drizzle 46 7.8 43 6.1 89 89 ENE 8 13 29.65 1004 3 5 0.00 0.03

Powered by AerisWeather